User: anonymous   Login
Location: ???????
(55.4362°N, 38.1183°E)
Time: 23:36:56
(UTC+00:00)
Language:

FENGYUN 1C DEB - Orbit

View from above orbital plane
View from above orbital plane
View from above satellite
View from above satellite

Ground track
Ground track

The orbit data is extracted from the following two-line orbital elements,

1 32103U 99025CQV 22025.55481046  .00006167  00000-0  94654-3 0  9999
2 32103  96.7078  58.8596 0070282 229.6896 285.6077 14.72190758780420
Epoch (UTC): 25 January 2022 13:18:55
Eccentricity: 0.0070282
inclination: 96.7078°
perigee height: 604 km
apogee height: 703 km
right ascension of ascending node: 58.8596°
argument of perigee: 229.6896°
revolutions per day: 14.72190758
mean anomaly at epoch: 285.6077°
orbit number at epoch: 78042

The dashed part of the orbit path shows where the satellite is in the earth's shadow,  

DLR